AZERSPACE 2 (IS-38)

Last updated on Tue Sep 16 2025 00:02:49 GMT+0000 (Coordinated Universal Time)

1 43632U 18074A 25258.59350266 .00000000 00000+0 00000+0 0 9994 2 43632 0.0219 159.2985 0001444 21.2067 73.0575 1.00270694 25690
UTC large
Height (km)
Speed (km/s)
/
Latitude / Longitude
Inclination (degrees)
Orbital Period (minutes)
Azimuth
Elevation
Range (km)
Doppler Factor

Next 0 passes for location: London (51.5072 / 0.1276)

Sorry there are no passes over London.